Notices

What's New in latest Release from April 7th, 2021:

- Updated Glossary, including Speed of Maximum Gust, and Total Hourly Precipitation

- Updated national and regional climate services offices contacts and prices information

- Addition of station inventory lists for 1981-2010, 1971-2000, and 1961-1990 Normals.

If you haven't already, please take our survey and provide feedback about our website: https://eccc.sondage-survey.ca/f/LanguageSelection.aspx?s=442ca660-fcf1-47c0-95a9-59707d6fd709

Hourly Data Report for February 17, 2017

TORONTO CITY
ONTARIO

43°40'00.000" N
79°24'00.000" W
112.50 m
6158355
71508
XTO

Download Data

Hourly Data (February 2017)
Hourly Data Report for February 17, 2017
TIME
LST
Temp Definition
°C
Dew Point Definition
°C
Rel Hum Definition
%
Precip. Amount Definition
mm

Wind Dir Definition
10's deg

Wind Spd Definition
km/h
Visibility Definition
km
Stn Press Definition
kPa
Hmdx Definition


Wind Chill Definition


Weather Definition


00:00 -6.4 -10.4 73 0.0 LegendMM LegendMM   100.04     LegendNANA
01:00 -6.2 -10.0 75 0.0 LegendMM LegendMM   100.02     LegendNANA
02:00 -6.2 -10.1 74 0.0 LegendMM LegendMM   100.02     LegendNANA
03:00 -5.8 -9.6 74 0.0 LegendMM LegendMM   100.01     LegendNANA
04:00 -5.6 -9.7 73 0.0 LegendMM LegendMM   100.00     LegendNANA
05:00 -5.7 -9.8 73 0.0 LegendMM LegendMM   99.92     LegendNANA
06:00 -5.7 -9.7 73 0.0 LegendMM LegendMM   99.90     LegendNANA
07:00 -5.3 -9.2 74 0.0 LegendMM LegendMM   99.93     LegendNANA
08:00 -5.2 -9.5 72 0.0 LegendMM LegendMM   99.93     LegendNANA
09:00 -4.0 -8.9 69 0.0 LegendMM LegendMM   99.96     LegendNANA
10:00 -2.9 -8.7 64 0.0 LegendMM LegendMM   99.97     LegendNANA
11:00 -2.2 -7.9 65 0.0 LegendMM LegendMM   99.96     LegendNANA
12:00 -1.0 -7.9 59 0.0 LegendMM LegendMM   99.91     LegendNANA
13:00 -0.1 -7.8 56 0.0 LegendMM LegendMM   99.83     LegendNANA
14:00 0.1 -7.2 58 0.0 LegendMM LegendMM   99.72     LegendNANA
15:00 0.4 -6.4 60 0.0 LegendMM LegendMM   99.69     LegendNANA
16:00 -0.6 -6.1 67 0.0 LegendMM LegendMM   99.70     LegendNANA
17:00 -0.5 -5.8 67 0.0 LegendMM LegendMM   99.68     LegendNANA
18:00 -0.6 -5.7 69 0.0 LegendMM LegendMM   99.64     LegendNANA
19:00 -0.5 -5.2 71 0.0 LegendMM LegendMM   99.59     LegendNANA
20:00 -0.1 -3.9 76 0.0 LegendMM LegendMM   99.53     LegendNANA
21:00 0.6 -3.0 77 0.0 LegendMM LegendMM   99.53     LegendNANA
22:00 1.1 -2.4 77 0.0 LegendMM LegendMM   99.45     LegendNANA
23:00 1.2 -3.0 73 0.0 LegendMM LegendMM   99.35     LegendNANA

Notes on Data Quality.

Legend

  • E = Estimated
  • M = Missing
  • NA = Not Available*
  • [empty] = Indicates an unobserved value
Date modified: